E-KAGAKU-1

Last updated on Thu Dec 11 2025 00:02:12 GMT+0000 (Coordinated Universal Time)

1 65943U 98067XQ 25344.27717868 .00100705 00000+0 12589-2 0 9990 2 65943 51.6298 152.3458 0005250 191.2269 168.8608 15.59004320 9476
UTC large
Height (km)
Speed (km/s)
/
Latitude / Longitude
Inclination (degrees)
Orbital Period (minutes)
Azimuth
Elevation
Range (km)
Doppler Factor

Next 0 passes for location: London (51.5072 / 0.1276)

Sorry there are no passes over London.